This is the latest recevied weather packets stored in our database for station/object KB3AWQ. If no packets are shown the sender has not sent any weather packets the latest 10 day(s).
| Time | Temp. | Humidity | Pressure | Rain* | Wind** | Luminosity | Snow |
|---|---|---|---|---|---|---|---|
| 1778010869 | 26.11° C | 42% | 1006.2 hPa | 0 mm | - | 148 W/m² | - |
| 1778010567 | 26.11° C | 42% | 1006.3 hPa | 0 mm | - | 108 W/m² | - |
| 1778010267 | 26.67° C | 41% | 1006.3 hPa | 0 mm | - | 99 W/m² | - |
| 1778009967 | 26.67° C | 39% | 1006.3 hPa | 0 mm | - | 131 W/m² | - |
| 1778009667 | 26.67° C | 39% | 1006.2 hPa | 0 mm | - | 129 W/m² | - |
| 1778009367 | 26.67° C | 38% | 1006.2 hPa | 0 mm | - | 164 W/m² | - |
| 1778009070 | 26.67° C | 39% | 1006.3 hPa | 0 mm | - | 184 W/m² | - |
| 1778008766 | 26.67° C | 38% | 1006.3 hPa | 0 mm | - | 176 W/m² | - |
| 1778008467 | 27.22° C | 38% | 1006.1 hPa | 0 mm | - | 198 W/m² | - |
| 1778008166 | 27.22° C | 38% | 1006.3 hPa | 0 mm | - | 245 W/m² | - |
| 1778007867 | 27.22° C | 39% | 1006.1 hPa | 0 mm | - | 417 W/m² | - |
| 1778007566 | 26.67° C | 40% | 1006.1 hPa | 0 mm | - | 842 W/m² | - |
| 1778007267 | 26.67° C | 41% | 1006.2 hPa | 0 mm | - | 716 W/m² | - |
| 1778006976 | 26.67° C | 41% | 1006.2 hPa | 0 mm | - | 400 W/m² | - |
| 1778006667 | 26.67° C | 42% | 1006.1 hPa | 0 mm | - | 525 W/m² | - |
| 1778006366 | 26.67° C | 41% | 1006.3 hPa | 0 mm | - | 278 W/m² | - |
| 1778006067 | 26.67° C | 43% | 1006.5 hPa | 0 mm | - | 262 W/m² | - |
| 1778005767 | 27.22° C | 42% | 1006.5 hPa | 0 mm | - | 334 W/m² | - |
| 1778005467 | 27.22° C | 40% | 1006.5 hPa | 0 mm | - | 363 W/m² | - |
| 1778005167 | 27.22° C | 41% | 1006.5 hPa | 0 mm | - | 417 W/m² | - |
| 1778004867 | 27.22° C | 41% | 1006.5 hPa | 0 mm | - | 504 W/m² | - |
| 1778004567 | 27.22° C | 43% | 1006.7 hPa | 0 mm | - | 837 W/m² | - |
| 1778004267 | 27.22° C | 42% | 1006.8 hPa | 0 mm | - | 872 W/m² | - |
| 1778003967 | 27.22° C | 42% | 1007 hPa | 0 mm | - | 357 W/m² | - |
| 1778003666 | 27.22° C | 42% | 1006.9 hPa | 0 mm | - | 990 W/m² | - |
* Rain latest hour (hover to see other rain measurements)
** Current wind speed in m/s (hover to see current wind gust speed)